K3TOW Weather Reports


time (UTC)temp
C
wind
direction
speed
KPH
gust
KPH
rain 1hr
cm
rain 24hr
cm
rain mn
cm
humidity
%
barometer
mb
20260504201003 23 334 4.8 14.5 0.00 0.00 0.00 38 1005.6
20260504200003 23 337 4.8 16.1 0.00 0.00 0.00 36 1005.9
20260504195003 23 39 4.8 14.5 0.00 0.00 0.00 38 1006.0
20260504194003 23 48 4.8 17.7 0.00 0.00 0.00 39 1006.0
20260504193003 22 356 4.8 24.1 0.00 0.00 0.00 38 1006.0
20260504192003 23 346 6.4 19.3 0.00 0.00 0.00 38 1006.3
20260504191003 23 2 4.8 17.7 0.00 0.00 0.00 39 1006.5
20260504190003 23 348 6.4 17.7 0.00 0.00 0.00 38 1006.6
20260504185214 23 359 6.4 17.7 0.00 0.00 0.00 38 1006.7
20260504184003 23 4 3.2 12.9 0.00 0.00 0.00 38 1006.8
20260504183003 22 32 4.8 17.7 0.00 0.00 0.00 38 1006.7
20260504182003 22 351 4.8 14.5 0.00 0.00 0.00 38 1006.8
20260504181003 22 350 4.8 20.9 0.00 0.00 0.00 40 1007.0
20260504180003 22 353 4.8 20.9 0.00 0.00 0.00 39 1007.0
20260504175003 22 2 4.8 12.9 0.00 0.00 0.00 39 1007.2
20260504174003 22 360 6.4 19.3 0.00 0.00 0.00 40 1007.3
20260504173213 22 23 3.2 16.1 0.00 0.00 0.00 40 1007.5
20260504172003 21 31 4.8 14.5 0.00 0.00 0.00 40 1007.6
20260504171003 21 357 4.8 17.7 0.00 0.00 0.00 41 1007.6
20260504151003 18 18 4.8 22.5 0.00 0.00 0.00 39 1009.3
20260504141003 16 356 3.2 8.0 0.00 0.00 0.00 43 1009.7
20260504130214 12 353 1.6 6.4 0.00 0.00 0.00 54 1010.2
20260504110213 2 0 0.0 0.0 0.00 0.00 0.00 94 1010.7
20260504100212 1 0 0.0 0.0 0.00 0.00 0.00 92 1010.3
20260504082004 2 0 0.0 0.0 0.00 0.00 0.00 91 1010.7
20260504081003 2 0 0.0 0.0 0.00 0.00 0.00 91 1010.7
20260504050213 3 0 0.0 0.0 0.00 0.00 0.00 89 1010.7
20260504045003 3 0 0.0 0.0 0.00 0.00 0.00 88 1010.6
20260504044003 3 0 0.0 0.0 0.00 0.00 0.00 88 1010.7
20260504043003 3 0 0.0 0.0 0.00 0.00 0.00 88 1010.6
20260504042003 3 0 0.0 0.0 0.00 0.00 0.00 87 1010.5
20260504041214 4 0 0.0 0.0 0.00 0.00 0.00 87 1010.5
20260504040004 4 0 0.0 0.0 0.00 0.00 0.00 87 1010.4
20260504035003 4 0 0.0 0.0 0.00 0.00 0.00 86 1010.5
20260504034003 4 0 0.0 0.0 0.00 0.00 0.00 85 1010.3
20260504033003 5 0 0.0 0.0 0.00 0.00 0.00 85 1010.3
20260504032003 5 0 0.0 0.0 0.00 0.00 0.00 84 1010.3
20260504031003 5 0 0.0 0.0 0.00 0.00 0.00 84 1010.3
20260504030214 5 0 0.0 0.0 0.00 0.00 0.00 83 1010.2
20260504025214 5 0 0.0 0.0 0.00 0.00 0.00 83 1010.2
20260504024003 6 0 0.0 0.0 0.00 0.00 0.00 81 1010.3
20260504023003 6 0 0.0 0.0 0.00 0.00 0.00 80 1010.3
20260504022003 6 0 0.0 0.0 0.00 0.00 0.00 80 1010.2
20260504021003 6 0 0.0 0.0 0.00 0.00 0.00 78 1010.2
20260504020003 6 0 0.0 0.0 0.00 0.00 0.00 78 1010.2
20260504015003 7 0 0.0 0.0 0.00 0.00 0.00 74 1010.1
20260504014003 7 0 0.0 0.0 0.00 0.00 0.00 73 1010.1
20260504013213 7 0 0.0 0.0 0.00 0.00 0.00 72 1010.0
20260504012003 8 0 0.0 0.0 0.00 0.00 0.00 69 1009.9
20260504011003 8 0 0.0 0.0 0.00 0.00 0.00 68 1009.8
20260504010003 9 0 0.0 0.0 0.00 0.00 0.00 64 1009.5
20260504005004 10 0 0.0 0.0 0.00 0.00 0.00 63 1009.7
20260504004003 11 0 0.0 0.0 0.00 0.00 0.00 59 1009.6
20260504003003 11 0 0.0 0.0 0.00 0.00 0.00 56 1009.5
20260504002003 12 37 0.0 3.2 0.00 0.00 0.00 49 1009.4
20260504001003 12 37 1.6 3.2 0.00 0.00 0.00 48 1009.3
20260504000003 13 39 1.6 4.8 0.00 0.00 0.00 45 1009.2
20260503235003 13 67 1.6 12.9 0.00 0.00 0.00 43 1009.1
20260503234003 14 45 1.6 8.0 0.00 0.00 0.00 44 1009.0
20260503233003 14 8 1.6 12.9 0.00 0.00 0.00 41 1009.0
20260503232003 15 54 1.6 9.7 0.00 0.00 0.00 40 1008.9
20260503231003 15 29 4.8 16.1 0.00 0.00 0.00 37 1008.9
20260503230003 15 346 3.2 12.9 0.00 0.00 0.00 37 1009.0
20260503225003 15 36 3.2 17.7 0.00 0.00 0.00 36 1008.9
20260503224003 16 18 4.8 11.3 0.00 0.00 0.00 36 1008.9
20260503223003 15 23 4.8 14.5 0.00 0.00 0.00 38 1009.0
20260503222003 15 19 3.2 9.7 0.00 0.00 0.00 40 1008.9
20260503221003 15 32 3.2 11.3 0.00 0.00 0.00 39 1008.8
20260503220214 15 354 4.8 12.9 0.00 0.00 0.00 37 1008.8
20260503215003 15 1 3.2 11.3 0.00 0.00 0.00 36 1008.9
20260503214003 16 16 3.2 14.5 0.00 0.00 0.00 36 1008.7
20260503213003 16 22 4.8 20.9 0.00 0.00 0.00 36 1008.6
20260503212003 16 351 4.8 16.1 0.00 0.00 0.00 36 1008.6
20260503211003 16 7 6.4 20.9 0.00 0.00 0.00 34 1008.6
20260503210003 16 341 6.4 19.3 0.00 0.00 0.00 34 1008.6
20260503205003 16 339 4.8 14.5 0.00 0.00 0.00 35 1008.4
20260503204003 16 352 6.4 17.7 0.00 0.00 0.00 35 1008.5
20260503203213 15 353 6.4 16.1 0.00 0.00 0.00 34 1008.4
20260503202213 15 48 3.2 11.3 0.00 0.00 0.00 35 1008.5